Wind_Speed
24 25 26 29 31 33 36 38 39 40 41 41 41 41 41 42 44 46 48 50 50 50 50 48 46 45 46 46 46 46 46 46 45 44 44 43 42 41 40 39 38 37
25 24 25 27 29 30 32 34 36 38 40 41 41 41 42 42 43 45 47 48 49 49 49 48 47 46 46 47 47 46 46 46 45 44 43 43 42 41 40 38 37 37
27 27 27 27 28 28 29 30 31 33 35 37 39 40 41 42 43 45 46 47 48 48 48 48 47 47 48 48 47 47 47 46 45 44 44 44 43 42 41 40 39 38
32 31 31 30 30 29 29 29 29 30 31 33 35 37 40 42 43 44 45 46 47 47 47 47 48 48 49 49 48 48 48 48 47 46 46 45 45 44 43 42 41 40
34 35 34 35 34 33 32 31 30 30 30 31 32 33 36 39 41 43 44 45 46 46 47 47 48 49 50 50 49 49 50 49 48 48 48 48 47 47 45 44 43 42
36 36 37 37 38 38 36 35 34 33 32 32 32 32 33 35 38 41 43 44 45 46 46 47 48 49 50 50 50 50 51 50 50 50 50 50 49 48 47 46 45 45
40 39 38 38 39 40 40 39 38 37 36 35 34 33 33 33 34 36 39 42 44 45 46 48 49 50 51 52 52 52 52 52 52 52 53 52 51 50 49 48 47 47
45 43 41 40 40 40 41 42 42 41 40 39 38 37 36 35 34 33 34 37 40 42 45 47 50 51 52 53 54 54 55 55 54 54 54 55 54 52 50 50 50 49
47 46 44 43 42 42 42 42 43 44 44 43 42 40 39 38 38 36 35 34 35 37 40 43 46 49 51 53 54 55 56 56 56 56 56 56 56 55 53 53 52 52
48 47 47 45 44 43 43 43 43 44 45 46 45 43 42 41 41 41 40 38 37 36 36 38 40 43 46 49 52 54 55 56 57 57 58 58 58 57 56 56 56 55
49 47 47 46 45 43 42 42 42 42 43 45 46 45 44 43 43 44 44 44 43 41 40 39 39 40 42 45 47 50 53 55 56 58 59 59 60 60 59 59 59 59
49 48 46 46 46 45 44 42 41 41 41 42 45 46 46 46 46 47 48 48 47 46 45 44 43 43 43 44 45 46 48 51 54 57 59 60 61 61 61 61 62 61
50 49 48 47 46 47 47 46 44 43 42 42 43 45 46 47 48 49 50 52 52 52 50 49 47 47 47 48 48 48 48 49 51 54 56 59 61 63 63 63 64 63
51 52 51 51 50 49 50 50 50 49 49 48 47 47 48 48 49 50 51 52 55 57 57 57 55 53 52 51 51 52 52 52 52 53 55 57 60 63 65 67 67 67
50 51 52 53 53 54 54 54 54 55 54 53 52 52 52 52 53 53 53 53 53 55 57 60 61 61 60 58 57 56 55 55 55 56 57 58 59 62 65 68 70 71
47 48 49 50 51 52 52 53 54 54 55 54 53 52 53 54 55 56 56 56 56 55 54 55 58 60 62 63 63 63 61 60 59 58 58 59 60 61 63 66 69 72
47 48 48 48 48 48 48 49 50 52 53 54 54 53 52 53 54 56 56 57 57 57 56 55 55 55 56 59 61 63 64 64 63 61 61 60 60 61 62 64 67 71
51 51 51 50 50 49 49 49 49 49 50 52 53 53 52 51 51 53 55 55 56 56 56 56 56 55 55 55 56 58 62 64 65 64 63 63 62 62 63 65 67 70
52 53 54 53 53 53 53 53 52 52 51 51 52 52 52 51 50 51 53 54 56 56 56 55 55 54 55 56 55 56 58 62 65 66 65 65 65 65 65 65 67 69
49 50 51 52 52 53 54 55 56 56 55 54 53 52 53 53 51 50 51 52 55 56 57 55 54 53 53 55 56 56 58 61 64 66 68 68 67 66 66 66 67 69
47 47 47 47 48 48 49 51 54 56 57 57 56 55 55 55 54 52 51 51 52 54 56 57 55 54 53 54 54 56 58 61 63 65 67 68 68 67 67 67 68 70
48 48 47 47 46 46 47 47 48 50 52 54 56 56 56 56 56 55 54 52 51 52 54 57 57 56 55 54 54 55 57 60 62 63 65 66 68 69 70 70 70 71
51 51 50 49 48 47 47 47 47 47 47 48 51 53 54 55 55 56 55 54 53 53 54 55 56 56 55 55 54 55 55 57 59 61 62 64 66 68 70 71 71 71
54 54 53 52 52 51 50 50 49 48 48 48 49 50 51 52 54 55 55 55 54 54 54 55 56 56 55 55 54 54 54 54 55 57 59 61 64 66 68 69 71 72
58 57 57 56 56 55 55 54 54 53 52 52 52 53 52 52 53 55 56 55 55 54 54 56 57 57 56 55 54 53 53 53 53 54 55 57 59 62 64 66 68 70
62 61 60 60 60 59 59 59 58 58 57 57 57 58 57 57 56 56 57 57 56 55 54 55 56 58 59 57 54 53 52 52 53 53 53 53 55 57 60 62 64 65
Wind_Direction
289 289 286 283 281 277 274 271 266 261 257 255 253 251 249 248 248 248 249 249 249 248 246 244 242 239 238 239 242 244 244 244 245 245 246 246 247 248 248 249 250 251
292 292 291 289 288 285 281 277 273 267 262 258 254 251 248 247 247 247 247 247 248 247 246 244 241 236 234 236 240 242 243 243 244 244 244 245 245 246 246 247 247 248
292 290 288 288 288 288 285 282 279 275 270 265 260 255 251 247 246 245 245 245 245 245 245 243 241 236 232 234 238 239 240 241 242 242 242 243 243 244 244 245 245 246
290 288 286 285 285 284 284 284 283 281 278 274 269 263 258 252 248 245 244 243 243 243 243 241 240 236 233 234 236 237 237 238 239 239 239 240 241 242 242 243 243 244
288 287 285 284 283 282 282 281 281 282 282 281 278 273 267 261 255 250 246 244 243 242 241 239 238 236 235 236 237 237 237 237 237 237 238 239 240 240 241 241 242 242
288 286 284 283 282 282 281 280 279 279 279 280 281 281 278 273 266 259 253 248 244 241 240 238 237 235 235 236 238 238 238 237 237 237 237 238 239 240 240 241 242 242
291 287 285 284 283 282 282 282 281 280 279 278 278 279 281 280 277 272 265 258 251 245 240 237 236 235 235 236 236 237 238 238 238 238 238 239 240 240 240 241 242 243
295 292 289 286 285 284 284 283 284 283 282 280 279 278 278 277 278 277 274 268 262 255 248 243 239 237 236 236 236 236 237 237 238 239 240 240 241 241 241 242 243 243
296 297 295 291 289 287 285 284 283 284 284 283 282 280 278 276 274 273 272 270 267 264 259 254 250 247 244 241 240 239 239 239 239 240 241 241 242 242 243 244 244 244
296 296 296 295 293 291 288 286 283 282 282 282 283 282 279 276 274 272 269 267 265 263 261 260 258 256 253 251 249 247 245 244 243 242 242 242 243 243 244 245 245 246
298 296 294 294 294 293 291 289 285 282 279 277 279 279 279 276 274 272 270 268 265 262 259 258 257 256 255 255 254 253 253 251 249 247 245 244 244 244 244 245 245 246
297 296 294 293 292 292 291 289 287 284 280 277 276 276 276 275 273 271 270 268 267 265 262 260 258 257 255 254 254 254 255 255 254 253 252 249 248 246 246 246 246 246
294 295 294 293 291 290 289 288 287 285 282 279 276 273 272 272 271 270 269 267 267 266 266 264 262 261 259 257 256 254 254 254 255 255 255 255 253 251 249 248 248 248
292 292 292 292 291 289 287 287 286 286 284 282 279 276 273 270 269 268 268 267 266 265 266 266 265 264 263 262 261 260 258 256 256 255 255 255 255 254 252 251 250 249
292 292 291 291 290 289 287 286 285 285 285 284 283 281 278 275 272 270 268 267 266 265 265 265 265 265 264 264 264 264 263 261 260 259 258 257 255 255 254 252 251 250
291 291 291 291 291 290 289 287 286 284 284 284 283 283 281 279 278 276 274 271 269 268 266 265 265 265 265 264 264 264 264 264 263 262 261 260 258 257 256 254 252 251
289 288 288 288 289 289 288 287 286 284 283 283 283 283 281 280 280 279 278 277 275 272 270 268 266 266 267 266 264 263 262 262 261 261 260 260 259 259 258 257 255 253
292 290 288 286 285 285 285 285 285 284 282 282 283 283 282 280 279 278 278 279 278 276 274 272 270 268 268 267 266 264 262 259 258 257 256 256 256 257 258 257 255 254
298 296 293 290 287 284 283 282 283 283 282 280 280 281 282 281 279 278 277 277 278 277 276 275 273 272 271 269 268 267 265 261 257 254 253 253 253 254 254 254 254 253
301 299 297 295 292 289 286 284 282 281 281 281 279 277 278 280 280 278 277 276 277 277 277 276 275 274 273 271 270 269 268 265 260 255 253 252 251 252 252 252 252 251
299 298 297 296 295 293 291 289 286 283 282 281 280 278 276 275 277 277 276 276 276 277 277 277 276 275 273 272 271 269 268 267 264 260 257 253 249 250 252 253 253 251
297 296 296 295 295 294 294 292 290 288 286 284 282 280 277 275 275 275 275 274 274 274 276 277 276 275 273 271 270 269 268 268 266 264 261 256 251 250 252 253 253 253
295 295 294 294 293 293 293 292 292 291 289 288 285 283 280 277 275 274 274 273 272 271 272 274 275 275 272 270 269 269 269 268 267 265 263 260 255 253 252 252 252 252
294 294 293 293 293 292 292 292 292 291 290 290 289 287 284 281 278 276 274 273 272 270 269 269 271 272 271 269 268 269 269 268 267 266 263 261 259 256 254 252 250 251
292 291 292 291 292 292 292 291 291 291 290 290 290 290 288 286 284 281 278 275 273 271 269 267 268 268 269 268 266 266 268 268 268 266 264 263 261 258 256 254 252 251
290 290 290 289 289 290 290 290 290 290 290 289 289 290 289 289 287 285 281 278 275 273 271 268 266 266 266 266 265 264 265 266 267 266 265 265 264 262 258 255 253 252
Height
3039 3037 3036 3035 3034 3033 3032 3032 3031 3030 3029 3028 3027 3027 3027 3027 3027 3028 3028 3029 3029 3030 3031 3033 3034 3036 3038 3040 3042 3043 3044 3045 3047 3048 3049 3050 3052 3053 3054 3056 3057 3057
3036 3034 3032 3032 3031 3030 3029 3028 3027 3026 3025 3024 3023 3022 3022 3022 3021 3021 3022 3022 3023 3025 3026 3027 3028 3029 3031 3033 3034 3036 3037 3039 3041 3042 3044 3045 3046 3048 3049 3051 3052 3052
3033 3031 3029 3028 3028 3027 3025 3025 3023 3022 3021 3020 3019 3018 3017 3016 3015 3015 3015 3016 3017 3018 3019 3021 3022 3023 3024 3026 3028 3029 3031 3033 3035 3037 3038 3039 3040 3042 3044 3046 3046 3047
3029 3027 3025 3025 3024 3023 3022 3021 3020 3019 3018 3017 3015 3014 3013 3012 3011 3010 3009 3010 3010 3011 3013 3014 3016 3017 3019 3020 3022 3023 3024 3026 3028 3030 3031 3032 3034 3036 3038 3039 3040 3042
3024 3022 3022 3021 3020 3019 3018 3017 3016 3015 3014 3013 3012 3011 3010 3009 3007 3006 3005 3005 3005 3005 3006 3008 3009 3011 3013 3014 3016 3017 3018 3020 3022 3024 3025 3026 3028 3030 3032 3033 3034 3036
3020 3019 3018 3017 3016 3015 3014 3013 3012 3011 3011 3010 3009 3008 3006 3005 3004 3003 3002 3001 3000 3000 3001 3002 3003 3005 3006 3008 3010 3011 3013 3015 3016 3018 3019 3020 3022 3024 3025 3027 3028 3029
3014 3014 3014 3012 3011 3010 3009 3008 3007 3007 3006 3005 3005 3004 3003 3002 3001 3000 3000 2998 2997 2996 2996 2996 2997 2998 2999 3001 3003 3004 3006 3008 3010 3012 3013 3014 3016 3017 3019 3021 3022 3024
3008 3008 3008 3007 3006 3005 3004 3003 3002 3001 3001 3000 3000 2999 2999 2998 2997 2997 2997 2996 2995 2994 2993 2993 2992 2993 2993 2994 2996 2997 2999 3001 3003 3005 3007 3008 3009 3011 3013 3015 3016 3018
3003 3002 3001 3001 3001 3000 2999 2998 2997 2995 2995 2994 2994 2994 2994 2993 2993 2992 2992 2992 2992 2992 2991 2991 2990 2990 2990 2990 2991 2992 2993 2995 2996 2998 3000 3001 3003 3005 3007 3009 3010 3012
2998 2997 2995 2994 2994 2994 2993 2992 2991 2990 2989 2988 2988 2988 2988 2988 2988 2987 2987 2987 2987 2987 2987 2987 2987 2987 2987 2987 2988 2988 2988 2989 2990 2991 2993 2994 2996 2998 3000 3002 3003 3005
2991 2991 2990 2988 2987 2987 2986 2986 2985 2984 2983 2982 2982 2981 2981 2981 2982 2982 2981 2981 2981 2981 2981 2981 2982 2982 2982 2982 2983 2983 2983 2984 2984 2985 2986 2987 2989 2990 2992 2994 2995 2997
2985 2984 2984 2982 2981 2980 2980 2979 2978 2978 2977 2976 2975 2975 2974 2974 2974 2974 2975 2974 2974 2974 2974 2974 2974 2975 2975 2976 2976 2976 2977 2978 2978 2979 2980 2981 2982 2983 2985 2986 2987 2990
2979 2978 2977 2976 2975 2974 2973 2972 2971 2971 2971 2970 2969 2968 2967 2967 2967 2966 2966 2966 2966 2966 2967 2967 2967 2967 2968 2968 2968 2968 2969 2970 2971 2972 2973 2974 2975 2976 2977 2978 2980 2982
2973 2972 2970 2969 2968 2967 2966 2965 2964 2963 2962 2962 2962 2961 2960 2960 2959 2958 2958 2958 2958 2958 2959 2959 2959 2960 2960 2960 2960 2960 2960 2961 2962 2963 2964 2965 2967 2968 2969 2970 2971 2972
2967 2965 2964 2962 2961 2960 2959 2958 2957 2955 2954 2954 2954 2953 2953 2952 2951 2950 2950 2949 2949 2950 2950 2950 2951 2951 2951 2951 2951 2951 2952 2952 2952 2953 2954 2956 2957 2958 2959 2961 2961 2962
2960 2958 2957 2955 2954 2952 2951 2950 2949 2948 2947 2946 2946 2945 2945 2944 2944 2943 2942 2941 2941 2941 2941 2942 2942 2942 2941 2941 2941 2941 2942 2942 2942 2943 2944 2945 2947 2948 2950 2951 2952 2953
2955 2953 2951 2948 2947 2945 2943 2942 2941 2939 2938 2938 2937 2937 2937 2936 2936 2935 2934 2933 2932 2932 2933 2933 2934 2934 2933 2931 2932 2932 2931 2932 2932 2933 2933 2935 2936 2938 2940 2941 2942 2943
2947 2946 2945 2943 2941 2939 2937 2935 2934 2932 2931 2929 2929 2928 2928 2928 2928 2927 2926 2925 2924 2924 2924 2924 2925 2926 2924 2923 2923 2923 2922 2922 2922 2922 2923 2925 2927 2928 2930 2931 2932 2933
2936 2936 2935 2934 2933 2932 2930 2928 2927 2925 2923 2922 2921 2920 2919 2919 2919 2919 2918 2917 2916 2915 2915 2915 2916 2917 2915 2915 2915 2914 2914 2912 2912 2912 2913 2914 2917 2919 2920 2921 2922 2924
2926 2925 2924 2923 2923 2922 2921 2920 2918 2917 2916 2914 2913 2912 2911 2910 2910 2910 2910 2909 2908 2907 2906 2907 2908 2907 2906 2906 2906 2905 2905 2904 2903 2903 2903 2904 2906 2908 2910 2911 2913 2914
2918 2917 2915 2914 2913 2912 2910 2909 2908 2907 2907 2905 2904 2903 2902 2901 2901 2900 2900 2901 2900 2899 2898 2898 2899 2899 2897 2896 2896 2896 2895 2894 2894 2894 2895 2895 2897 2898 2899 2901 2903 2905
2911 2910 2908 2906 2905 2903 2901 2900 2898 2898 2897 2896 2894 2894 2894 2893 2892 2891 2890 2891 2891 2891 2890 2890 2891 2891 2889 2888 2887 2886 2885 2884 2884 2885 2885 2886 2888 2889 2890 2891 2893 2895
2904 2902 2900 2899 2897 2895 2894 2892 2890 2889 2889 2887 2885 2884 2884 2884 2883 2882 2881 2881 2881 2881 2881 2881 2882 2882 2881 2880 2879 2877 2875 2874 2874 2874 2875 2876 2878 2880 2880 2881 2882 2885
2896 2894 2892 2890 2888 2887 2885 2884 2883 2882 2881 2879 2877 2875 2874 2874 2873 2872 2872 2872 2871 2871 2871 2871 2873 2874 2873 2871 2871 2869 2867 2865 2865 2864 2865 2866 2868 2870 2870 2870 2872 2874
2888 2886 2884 2882 2880 2878 2877 2875 2874 2873 2872 2871 2869 2867 2865 2865 2864 2862 2862 2862 2862 2862 2861 2861 2862 2865 2864 2862 2862 2861 2858 2857 2856 2855 2856 2857 2858 2859 2860 2861 2862 2864
2878 2876 2875 2873 2871 2869 2867 2866 2865 2863 2862 2861 2860 2858 2857 2855 2855 2853 2851 2851 2852 2852 2851 2851 2851 2853 2855 2853 2852 2851 2850 2848 2847 2847 2848 2849 2850 2850 2850 2851 2853 2854